SKYSAT C12

导读 | 豆包AI

SKYSAT C12是由美国开发的高分辨率遥感卫星,于北京时间2018年12月3日发射升空。该卫星属于SkySat系列卫星星座,主要用于提供超高分辨率的地球光学影像,服务于测绘、城市规划、灾害监测、资源管理以及商业情报等多个领域。它凭借亚米级的成像能力,能够获取精细的地表信息,为全球用户提供高质量的对地观测数据,助力各行业的空间信息应用发展,是美国商业遥感卫星体系中的重要组成部分。

基本信息
目录编号:
43797
目录名称:
SKYSAT C12
国际标识:
2018-099AR
轨道中心:
EARTH
卫星名称:
SKYSAT C12
卫星全名:
--
卫星状态:
在轨 (已飞行2658 天)
发射日期:
2018-12-03 UTC
国别 :
美国 (US)
星等 :
--
轨道信息
数据来源 国际轨道数据
星历时间: 2026-03-14T07:11:56+0800
5小时前
查看轨道信息
半长轴: 6807.253km
偏心率: 0.0005874
轨道倾角: 96.938°
近地点辐角 126.943°
升交点赤经 100.192°
平近点角 233.236°
近地点: 425.117km
远地点: 433.115km
周期: 93.157分钟
每日圈数: 15.457703
详细信息
使用方式:
暂无
2D轨道图
3D轨道图
轨道高度分析图
轨道倾角分析图
轨道综合分析图
查看轨道综合分析图